Regional Weather Roundup
Issued by NWS New Orleans/Baton Rouge, LA

Home | Current Version | Previous Version | Text Only | Print | Product List | Glossary On
Versions: 1 2 3 4 5 6 7 8 9 10 11 12 13 14 15 16 17 18 19 20 21 22 23 24 25 26 27 28 29 30 31 32 33 34 35 36 37 38 39 40 41 42 43 44 45 46 47 48 49 50
411
ASUS44 KLIX 281807
RWRLIX
NEW ORLEANS REGIONAL WEATHER ROUNDUP
NATIONAL WEATHER SERVICE NEW ORLEANS LA
100 PM CDT SAT MAR 28 2015

NOTE: "FAIR" INDICATES FEW OR NO CLOUDS BELOW 12,000 FEET WITH NO
      SIGNIFICANT WEATHER AND/OR OBSTRUCTIONS TO VISIBILITY.
      SKY/WX - SKY CONDITION AND SIGNIFICANT WEATHER.
      TMP - AIR TEMPERATURE.     DP    - DEWPOINT TEMPERATURE.
      RH  - RELATIVE HUMIDITY.   PRES  - PRESSURE.
      HI  - HEAT INDEX.          WCI   - WIND CHILL INDEX.

*  THESE STATIONS ARE NOT NWS OR FAA STATIONS AND ARE NOT UNDER
   NWS QUALITY CONTROL.

LAZ038-040-048-061>063-065>067-069-281900-
SOUTHEAST LOUISIANA

CITY           SKY/WX    TMP DP  RH WIND       PRES   REMARKS
N.O. AUDUBON     N/A    N/A N/A N/A MISG        N/A
                   6HR MAX TEMP:  66;

N.O. INTL ARPT MOSUNNY   64  43  46 CALM      30.22F
6HR MIN TEMP:  50; 6HR MAX TEMP:  65;

N.O. LAKEFRONT SUNNY     65  40  39 E9        30.24F
6HR MIN TEMP:  53; 6HR MAX TEMP:  65;

SLIDELL        SUNNY     62  38  40 S3        30.24F
6HR MIN TEMP:  41; 6HR MAX TEMP:  63;

BATON ROUGE    SUNNY     66  40  38 VRB3      30.21F
6HR MIN TEMP:  42; 6HR MAX TEMP:  67;

BOOTHVILLE     SUNNY     62  45  53 NE10      30.26F
6HR MIN TEMP:  54; 6HR MAX TEMP:  62;

BELLE CHASSE   MOSUNNY   62  41  46 VRB7      30.22F
6HR MIN TEMP:  47; 6HR MAX TEMP:  63;

BOGALUSA*        N/A     63  36  36 W3        30.25F
6HR MIN TEMP:  39; 6HR MAX TEMP:  63;

GALLIANO*      CLEAR     67  46  45 MISG      30.23F
6HR MIN TEMP:  54; 6HR MAX TEMP:  67;

NEW ROADS*       N/A     65  41  42 E3        30.22S
6HR MIN TEMP:  45; 6HR MAX TEMP:  65;

GONZALES*        N/A     67  43  42 SE6       30.20F
6HR MIN TEMP:  42; 6HR MAX TEMP:  67;

HAMMOND*       SUNNY     64  34  32 S7        30.24F
HOUMA*         SUNNY     66  48  52 E7        30.22F
PORT FOURCHON* CLEAR     63  48  59 E12       30.26F

$$

MSZ070-080>082-281900-
SOUTHERN MISSISSIPPI

CITY           SKY/WX    TMP DP  RH WIND       PRES   REMARKS
MCCOMB         MOSUNNY   61  38  42 W6        30.23F
6HR MIN TEMP:  38; 6HR MAX TEMP:  62;

GULFPORT       SUNNY     58  39  49 SE10      30.25S
6HR MIN TEMP:  44; 6HR MAX TEMP:  59;

BILOXI         SUNNY     60  40  47 S13       30.25F
6HR MIN TEMP:  44; 6HR MAX TEMP:  60;

PASCAGOULA     SUNNY     61  34  36 MISG      30.25F
6HR MIN TEMP:  38; 6HR MAX TEMP:  63;

STENNIS ARPT*  SUNNY     61  34  36 S8        30.25F

$$

COASTAL OBSERVATIONS
LAKE AND NEARSHORE STATIONS

STATION/POSITION TIME  TEMP    WIND        PRES    WAVE
                       AIR SEA DIR/SP/G            HT/PER
                 (UTC) (F)     (DEG/KT/KT) (MB)    (FT/S)
PASCAGOULA       1700   58     150/  5/  8 1024.1
WAVELAND YACHT   1700   53 64  160/ 11/ 12 1024.7
GRAND ISLE       1700   62 66   90/  8/ 12 1024.0
SOUTHWEST PASS   1700   66 52   70/ 11/ 13 1024.4
NEW CANAL        1700          150/  4/ 10   N/A
SHELL BEACH      1700   59 65   50/  7/  9 1024.7

OFFSHORE STATIONS

STATION/POSITION TIME  TEMP    WIND        PRES    WAVE
                       AIR SEA DIR/SP/G            HT/PER
                 (UTC) (F)     (DEG/KT/KT) (MB)    (FT/S)
64 S DAUPHIN ISL 1750   57 72   40/  8/ 12 1024.7    2/ 5

$$




USA.gov is the U.S. government's official web portal to all federal, state and local government web resources and services.